Location: Blue Mountain Vista Observatory
(40.6992°N, 75.9422°W)
Time: 06:52:04
(UTC-05:00)

Daily predictions for brighter satellites

Satellite Brightness Start Highest point End
(mag) Time Altitude Azimuth Time Altitude Azimuth Time Altitude Azimuth
Cosmos 2082 Rocket 2.5 16:57:18 10° NNW 17:02:46 46° ENE 17:08:13 10° SE
CZ-3B DEB 2.4 17:00:19 10° WSW 17:03:38 55° NNW 17:11:52 10° NE
Cosmos 1544 Rocket 4.0 16:59:48 10° NNW 17:04:16 71° W 17:08:41 10° S
Cosmos 2218 Rocket 4.1 17:01:16 10° N 17:07:33 84° W 17:13:43 10° S
AQUARIUS 4.5 17:03:29 10° SE 17:07:44 44° ENE 17:12:00 10° N
Cosmos 1500 3.4 17:05:38 10° N 17:09:23 51° E 17:13:10 10° SSE
Cosmos 921 Rocket 3.4 17:07:15 10° S 17:11:18 44° ESE 17:15:27 10° NNE
COSMO-SKYMED 1 4.1 17:10:37 10° NE 17:13:38 18° E 17:16:38 10° SE
Cosmos 1743 3.6 17:10:55 10° NNE 17:14:16 27° ENE 17:17:35 10° SE
Cosmos 1025 Rocket 4.3 17:11:33 10° SE 17:14:51 21° E 17:18:08 10° NE
ISS -0.9 17:17:14 10° NNW 17:18:44 12° N 17:20:15 10° NNE
Cosmos 1536 Rocket 4.1 17:21:50 10° SSW 17:26:15 64° W 17:30:42 10° N
Cosmos 1821 Rocket 4.4 17:21:32 10° N 17:27:09 37° ENE 17:32:45 10° SE
Cosmos 1371 Rocket 4.4 17:23:14 10° S 17:28:18 45° ESE 17:33:24 10° NNE
Timation 1 Rocket 4.3 17:24:48 10° SSW 17:30:44 79° ESE 17:36:44 10° NNE
Abrixas 3.4 17:28:18 10° WNW 17:31:11 48° SW 17:34:02 10° SE
Meteor 1-19 Rocket 4.5 17:26:34 10° SSE 17:32:11 52° E 17:37:52 10° NNE
Meteor 2-21 Rocket 4.5 17:27:05 10° N 17:33:13 63° E 17:39:17 10° SSE
Cosmos 1484 Rocket 3.4 17:33:02 10° SE 17:36:22 32° ENE 17:39:42 10° N
YAOGAN 1 2.5 17:32:09 10° SSE 17:36:28 82° ENE 17:40:49 10° N
CORIOLIS 4.1 17:31:40 10° SSE 17:37:03 79° ENE 17:42:27 10° N
Timation 2 Rocket 4.3 17:30:46 10° NNW 17:37:40 86° WSW 17:44:33 10° SSE
NOSS 7 (E) 4.4 17:34:15 10° SSW 17:37:43 61° ESE 17:40:10 16° NE
Cosmos 2369 Rocket 3.7 17:36:30 10° SE 17:39:47 16° E 17:40:59 15° E
Cosmos 2058 Rocket 4.4 17:37:31 10° NNE 17:40:42 19° ENE 17:43:51 10° ESE
SPOT 3 Rocket 3.6 17:35:57 10° SSE 17:41:09 83° WSW 17:46:20 10° NNW
NOSS 2-1 (D) 3.5 17:37:42 10° SW 17:41:31 73° NW 17:45:29 12° NNE
NOSS 2-1 (C) 3.5 17:38:21 10° SW 17:42:11 75° NW 17:46:08 12° NNE
COSMOS 2487 4.1 17:38:50 10° NW 17:42:12 39° WSW 17:45:33 10° S
BREEZE M DEB (TANK) 3.0 17:32:11 10° SW 17:42:17 80° SE 17:44:40 19° ENE
NOSS 7 (D) 4.3 17:45:53 10° SSW 17:49:24 76° ESE 17:51:27 22° NE
Meteor 2-4 Rocket 3.7 17:47:04 10° S 17:52:16 53° E 17:57:28 10° NNE
Meteor 1-23 Rocket 4.4 17:48:04 10° SSE 17:53:29 48° E 17:58:53 10° NNE
Nadezhda 3 Rocket 4.1 17:49:21 10° S 17:55:35 82° W 18:01:55 10° N
Meteor 1-13 Rocket 4.4 17:51:20 10° SSW 17:57:03 79° W 18:02:57 10° N
Okean 2 3.9 17:54:22 10° SSE 17:58:11 37° E 18:00:15 22° NE
Cosmos 1452 Rocket 4.5 17:54:02 10° SSE 17:58:17 25° E 17:59:27 23° ENE
Cosmos 1190 Rocket 4.2 17:53:17 10° N 17:58:21 48° ENE 18:03:22 10° SE
Delta 2 Rocket 4.3 17:55:12 10° WSW 17:58:29 35° S 18:01:05 16° SE
NOSS 2-1 (E) 4.0 17:57:10 10° SW 18:00:58 52° NW 18:04:23 15° NNE
SKYMED 2 3.5 17:57:39 10° NNE 18:01:56 61° E 18:06:13 10° S
Cosmos 1340 3.5 17:59:46 10° SSE 18:02:53 29° E 18:02:53 29° E
CZ-4 R/B 3.6 18:04:37 10° SSW 18:08:13 28° W 18:11:48 10° NW
BREEZE-M DEB (TANK) 4.2 18:04:04 10° WNW 18:09:23 28° N 18:11:00 22° NE
GEOS 3 Rocket 4.4 18:12:10 28° NE 18:12:46 29° NE 18:17:06 10° NNW
MSX 4.2 18:09:04 10° S 18:14:45 65° WSW 18:20:29 10° NNW
IDEFIX/ARIANE 42P 4.0 18:09:55 10° SSW 18:14:46 40° W 18:19:39 10° NNW
Cosmos 1892 Rocket 3.6 18:11:00 10° S 18:15:15 54° E 18:17:16 28° NNE
USA 234 3.4 18:11:47 19° NE 18:16:37 69° NW 18:23:05 10° WSW
CZ-2C R/B 4.1 18:12:18 10° SSW 18:16:56 37° W 18:21:42 10° NNW
Cosmos 1727 Rocket 4.3 18:11:30 10° SSE 18:17:15 42° E 18:21:20 19° NNE
Cosmos 1726 Rocket 3.5 18:16:22 10° N 18:20:49 67° E 18:25:14 10° SSE
Cosmos 2278 Rocket 4.5 18:17:37 10° W 18:21:27 18° NW 18:25:19 10° N
Cosmos 1666 2.8 18:19:39 10° N 18:23:33 77° W 18:27:24 10° S
DMSP B5D1-3 4.4 18:20:10 13° NNE 18:24:45 78° ESE 18:29:52 10° S
Meteor 2-8 Rocket 4.3 18:20:24 10° S 18:26:28 82° E 18:32:36 10° N
Cosmos 1833 Rocket 4.3 18:29:58 10° NW 18:35:04 36° WSW 18:40:08 10° S
Cosmos 1934 Rocket 4.1 18:29:49 10° N 18:36:04 78° W 18:42:22 10° S
NOSS 3-4 (A) 4.0 18:29:24 10° NW 18:36:27 74° WSW 18:43:55 10° SSE
NOSS 3-4 (C) 4.0 18:29:30 10° NW 18:36:33 75° WSW 18:44:02 10° SSE
Tiangong 1 2.4 18:34:19 10° WNW 18:36:16 34° WNW 18:36:16 34° WNW
Cosmos 1606 Rocket 4.1 18:36:19 10° NNW 18:40:45 61° W 18:45:09 10° S
BREEZE M DEB (TANK) 3.6 18:40:10 10° NW 18:44:18 76° NNE 18:50:56 26° ESE
Cosmos 2082 Rocket 4.5 18:42:01 10° NW 18:46:31 25° WSW 18:51:01 10° SSW
Cosmos 407 Rocket 3.6 18:42:25 10° NNW 18:47:33 73° WSW 18:52:42 10° S
COSMO-SKYMED 1 3.9 18:46:16 12° N 18:49:55 38° WNW 18:53:56 10° SW
Cosmos 1339 Rocket 4.3 18:45:15 10° S 18:51:16 70° E 18:53:26 41° NNE
Meteor 1-28 Rocket 3.8 18:51:38 52° WNW 18:51:54 54° WNW 18:55:35 10° SSW
Cosmos 676 Rocket 4.0 18:55:05 10° NNW 19:00:17 79° WSW 19:02:36 34° S
Cosmos 1954 Rocket 4.1 18:58:45 10° NNW 19:03:04 62° NNW 19:03:04 62° NNW
Cosmos 1153 Rocket 4.5 19:11:31 10° N 19:17:39 77° W 19:23:45 10° S
Cosmos 2369 Rocket 2.4 19:17:28 10° SSW 19:22:50 68° W 19:22:50 68° W
ATLAS 3B CENTAUR R/B 4.4 19:18:03 10° W 19:33:40 34° SSW 19:37:23 25° SSE
CZ-3B DEB 4.4 19:33:50 10° NW 19:40:15 36° N 19:41:22 35° NNE
Cosmos 1943 Rocket 4.2 19:42:07 10° SSW 19:43:25 18° SSW 19:43:25 18° SSW
FALCON 9 R/B 3.9 20:01:53 10° W 20:13:37 42° SW 20:13:37 42° SW
